| time (UTC) | temp C | wind direction | speed KPH | gust KPH | rain 1hr cm | rain 24hr cm | rain mn cm | humidity % | barometer mb |
| 20260505235431 | 17 | 203 | 4.8 | 11.3 | 0.00 | 0.00 | 0.00 | 64 | 1014.8 |
| 20260505234929 | 17 | 194 | 4.8 | 11.3 | 0.00 | 0.00 | 0.00 | 65 | 1015.0 |
| 20260505234434 | 16 | 203 | 6.4 | 11.3 | 0.00 | 0.00 | 0.00 | 65 | 1015.0 |
| 20260505233932 | 16 | 194 | 6.4 | 11.3 | 0.00 | 0.00 | 0.00 | 66 | 1015.0 |
| 20260505233432 | 16 | 188 | 8.0 | 16.1 | 0.00 | 0.00 | 0.00 | 67 | 1015.1 |
| 20260505232930 | 16 | 340 | 8.0 | 16.1 | 0.00 | 0.00 | 0.00 | 68 | 1015.1 |
| 20260505232428 | 16 | 342 | 8.0 | 12.9 | 0.00 | 0.00 | 0.00 | 68 | 1015.1 |
| 20260505231930 | 16 | 331 | 8.0 | 14.5 | 0.00 | 0.00 | 0.00 | 68 | 1015.4 |
| 20260505231429 | 16 | 305 | 9.7 | 14.5 | 0.00 | 0.00 | 0.00 | 69 | 1015.4 |
| 20260505230930 | 16 | 270 | 8.0 | 14.5 | 0.00 | 0.00 | 0.00 | 68 | 1015.4 |
| 20260505230429 | 16 | 295 | 8.0 | 14.5 | 0.00 | 0.00 | 0.00 | 69 | 1015.5 |
| 20260505225929 | 16 | 313 | 8.0 | 14.5 | 0.00 | 0.00 | 0.00 | 68 | 1015.5 |
| 20260505225429 | 16 | 285 | 8.0 | 16.1 | 0.00 | 0.00 | 0.00 | 68 | 1015.5 |
| 20260505225227 | 16 | 275 | 6.4 | 16.1 | 0.00 | 0.00 | 0.00 | 69 | 1015.5 |
| 20260505224432 | 16 | 311 | 6.4 | 11.3 | 0.00 | 0.00 | 0.00 | 70 | 1015.5 |
| 20260505223932 | 16 | 295 | 6.4 | 11.3 | 0.00 | 0.00 | 0.00 | 69 | 1015.5 |
| 20260505223431 | 16 | 314 | 6.4 | 12.9 | 0.00 | 0.00 | 0.00 | 70 | 1015.5 |
| 20260505222929 | 15 | 255 | 8.0 | 16.1 | 0.00 | 0.00 | 0.00 | 70 | 1015.5 |
| 20260505222717 | 15 | 328 | 9.7 | 16.1 | 0.00 | 0.00 | 0.00 | 71 | 1015.5 |
| 20260505221929 | 15 | 326 | 9.7 | 16.1 | 0.00 | 0.00 | 0.00 | 71 | 1015.6 |
| 20260505221430 | 15 | 283 | 11.3 | 17.7 | 0.00 | 0.00 | 0.00 | 71 | 1015.6 |
| 20260505220929 | 16 | 9 | 8.0 | 17.7 | 0.00 | 0.00 | 0.00 | 69 | 1015.6 |
| 20260505220430 | 16 | 291 | 3.2 | 8.0 | 0.00 | 0.00 | 0.00 | 68 | 1015.7 |
| 20260505215929 | 16 | 200 | 4.8 | 9.7 | 0.00 | 0.00 | 0.00 | 67 | 1015.7 |
| 20260505215427 | 16 | 240 | 4.8 | 9.7 | 0.00 | 0.00 | 0.00 | 68 | 1015.7 |
| 20260505214918 | 16 | 268 | 4.8 | 9.7 | 0.00 | 0.00 | 0.00 | 68 | 1015.8 |
| 20260505214420 | 16 | 323 | 4.8 | 9.7 | 0.00 | 0.00 | 0.00 | 68 | 1015.8 |
| 20260505213920 | 16 | 231 | 3.2 | 6.4 | 0.00 | 0.00 | 0.00 | 68 | 1015.8 |
| 20260505213425 | 16 | 231 | 3.2 | 6.4 | 0.00 | 0.00 | 0.00 | 69 | 1015.9 |
| 20260505212926 | 15 | 302 | 4.8 | 6.4 | 0.00 | 0.00 | 0.00 | 69 | 1015.9 |
| 20260505212654 | 15 | 306 | 4.8 | 9.7 | 0.00 | 0.00 | 0.00 | 69 | 1015.9 |
| 20260505211917 | 16 | 287 | 3.2 | 9.7 | 0.00 | 0.00 | 0.00 | 68 | 1015.9 |
| 20260505211416 | 16 | 245 | 3.2 | 8.0 | 0.00 | 0.00 | 0.00 | 68 | 1015.9 |
| 20260505210939 | 16 | 306 | 4.8 | 11.3 | 0.00 | 0.00 | 0.00 | 68 | 1015.9 |
| 20260505205903 | 15 | 205 | 4.8 | 9.7 | 0.00 | 0.00 | 0.00 | 68 | 1016.0 |
| 20260505205401 | 15 | 220 | 4.8 | 6.4 | 0.00 | 0.00 | 0.00 | 68 | 1016.0 |
| 20260505205147 | 15 | 173 | 3.2 | 6.4 | 0.00 | 0.00 | 0.00 | 68 | 1016.0 |
| 20260505204401 | 15 | 192 | 3.2 | 6.4 | 0.00 | 0.00 | 0.00 | 68 | 1016.0 |
| 20260505203901 | 15 | 204 | 3.2 | 9.7 | 0.00 | 0.00 | 0.00 | 68 | 1016.0 |
| 20260505203649 | 15 | 298 | 3.2 | 9.7 | 0.00 | 0.00 | 0.00 | 68 | 1016.0 |
| 20260505202901 | 15 | 229 | 3.2 | 8.0 | 0.00 | 0.00 | 0.00 | 68 | 1016.0 |
| 20260505202405 | 15 | 202 | 4.8 | 9.7 | 0.00 | 0.00 | 0.00 | 68 | 1016.0 |
| 20260505202144 | 15 | 281 | 4.8 | 9.7 | 0.00 | 0.00 | 0.00 | 69 | 1015.9 |
| 20260505201404 | 15 | 277 | 4.8 | 9.7 | 0.00 | 0.00 | 0.00 | 69 | 1015.9 |
| 20260505200904 | 15 | 267 | 3.2 | 11.3 | 0.00 | 0.00 | 0.00 | 70 | 1015.9 |
| 20260505200404 | 15 | 232 | 4.8 | 11.3 | 0.00 | 0.00 | 0.00 | 69 | 1016.0 |
| 20260505200148 | 15 | 223 | 6.4 | 11.3 | 0.00 | 0.00 | 0.00 | 69 | 1016.0 |
| 20260505195405 | 15 | 200 | 4.8 | 11.3 | 0.00 | 0.00 | 0.00 | 70 | 1016.0 |
| 20260505195151 | 15 | 232 | 4.8 | 11.3 | 0.00 | 0.00 | 0.00 | 69 | 1016.0 |
| 20260505194407 | 15 | 200 | 3.2 | 9.7 | 0.00 | 0.00 | 0.00 | 70 | 1016.0 |
| 20260505193905 | 15 | 225 | 3.2 | 8.0 | 0.00 | 0.00 | 0.00 | 72 | 1016.0 |
| 20260505193357 | 15 | 335 | 4.8 | 9.7 | 0.00 | 0.00 | 0.00 | 72 | 1016.0 |
| 20260505192844 | 15 | 295 | 4.8 | 8.0 | 0.00 | 0.00 | 0.00 | 71 | 1016.0 |
| 20260505192339 | 14 | 229 | 6.4 | 11.3 | 0.00 | 0.00 | 0.00 | 72 | 1016.0 |
| 20260505191841 | 14 | 204 | 8.0 | 16.1 | 0.00 | 0.00 | 0.00 | 71 | 1015.9 |
| 20260505191341 | 14 | 229 | 8.0 | 16.1 | 0.00 | 0.00 | 0.00 | 71 | 1015.9 |
| 20260505190900 | 14 | 271 | 4.8 | 14.5 | 0.00 | 0.00 | 0.00 | 70 | 1015.9 |
| 20260505185836 | 14 | 223 | 6.4 | 9.7 | 0.00 | 0.00 | 0.00 | 71 | 1016.0 |
| 20260505185334 | 14 | 326 | 6.4 | 11.3 | 0.00 | 0.00 | 0.00 | 71 | 1016.0 |
| 20260505184835 | 14 | 282 | 6.4 | 11.3 | 0.00 | 0.00 | 0.00 | 71 | 1016.0 |
| 20260505184334 | 14 | 253 | 4.8 | 9.7 | 0.00 | 0.00 | 0.00 | 72 | 1016.0 |
| 20260505183834 | 14 | 264 | 6.4 | 16.1 | 0.00 | 0.00 | 0.00 | 72 | 1016.0 |
| 20260505183332 | 14 | 228 | 6.4 | 16.1 | 0.00 | 0.00 | 0.00 | 72 | 1016.0 |
| 20260505182852 | 14 | 304 | 4.8 | 11.3 | 0.00 | 0.00 | 0.00 | 72 | 1016.0 |
| 20260505182111 | 14 | 230 | 4.8 | 11.3 | 0.00 | 0.00 | 0.00 | 72 | 1015.9 |
| 20260505181604 | 13 | 208 | 8.0 | 17.7 | 0.00 | 0.00 | 0.00 | 72 | 1015.9 |
| 20260505180832 | 13 | 265 | 6.4 | 17.7 | 0.00 | 0.00 | 0.00 | 72 | 1015.9 |
| 20260505180319 | 14 | 291 | 4.8 | 9.7 | 0.00 | 0.00 | 0.00 | 72 | 1015.9 |
| 20260505175816 | 14 | 242 | 4.8 | 9.7 | 0.00 | 0.00 | 0.00 | 72 | 1015.9 |
| 20260505175311 | 13 | 231 | 4.8 | 11.3 | 0.00 | 0.00 | 0.00 | 73 | 1015.9 |
| 20260505174804 | 13 | 204 | 6.4 | 11.3 | 0.00 | 0.00 | 0.00 | 73 | 1015.8 |
| 20260505174257 | 13 | 282 | 4.8 | 11.3 | 0.00 | 0.00 | 0.00 | 73 | 1015.8 |
| 20260505173751 | 13 | 209 | 4.8 | 11.3 | 0.00 | 0.00 | 0.00 | 73 | 1015.8 |
| 20260505173245 | 13 | 285 | 6.4 | 12.9 | 0.00 | 0.00 | 0.00 | 73 | 1015.6 |
| 20260505172732 | 13 | 252 | 4.8 | 12.9 | 0.00 | 0.00 | 0.00 | 73 | 1015.6 |
| 20260505172231 | 13 | 268 | 4.8 | 9.7 | 0.00 | 0.00 | 0.00 | 73 | 1015.6 |
| 20260505171722 | 13 | 211 | 4.8 | 9.7 | 0.00 | 0.00 | 0.00 | 73 | 1015.5 |
| 20260505171221 | 13 | 189 | 4.8 | 11.3 | 0.00 | 0.00 | 0.00 | 73 | 1015.5 |
| 20260505170954 | 13 | 234 | 4.8 | 11.3 | 0.00 | 0.00 | 0.00 | 73 | 1015.5 |
| 20260505170213 | 13 | 241 | 6.4 | 16.1 | 0.00 | 0.00 | 0.00 | 74 | 1015.5 |
| 20260505165738 | 13 | 154 | 4.8 | 16.1 | 0.00 | 0.00 | 0.00 | 74 | 1015.5 |
| 20260505164714 | 13 | 247 | 4.8 | 14.5 | 0.00 | 0.00 | 0.00 | 74 | 1015.5 |
| 20260505164212 | 13 | 270 | 3.2 | 9.7 | 0.00 | 0.00 | 0.00 | 74 | 1015.5 |
| 20260505163709 | 13 | 283 | 4.8 | 14.5 | 0.00 | 0.00 | 0.00 | 74 | 1015.5 |
| 20260505163210 | 13 | 274 | 6.4 | 14.5 | 0.00 | 0.00 | 0.00 | 75 | 1015.4 |
| 20260505162707 | 13 | 242 | 4.8 | 12.9 | 0.00 | 0.00 | 0.00 | 73 | 1015.4 |
| 20260505162206 | 13 | 249 | 4.8 | 16.1 | 0.00 | 0.00 | 0.00 | 75 | 1015.4 |
| 20260505161704 | 13 | 211 | 6.4 | 16.1 | 0.00 | 0.00 | 0.00 | 76 | 1015.2 |
| 20260505161201 | 13 | 198 | 4.8 | 16.1 | 0.00 | 0.00 | 0.00 | 76 | 1015.2 |
| 20260505160701 | 13 | 220 | 4.8 | 9.7 | 0.00 | 0.00 | 0.00 | 76 | 1015.2 |
| 20260505160201 | 13 | 223 | 4.8 | 9.7 | 0.00 | 0.00 | 0.00 | 77 | 1015.2 |
| 20260505152701 | 13 | 196 | 6.4 | 14.5 | 0.00 | 0.00 | 0.00 | 78 | 1015.0 |
| 20260505152202 | 13 | 249 | 4.8 | 14.5 | 0.00 | 0.00 | 0.00 | 78 | 1015.0 |
| 20260505151703 | 13 | 197 | 6.4 | 11.3 | 0.00 | 0.00 | 0.00 | 79 | 1015.0 |
| 20260505151201 | 13 | 191 | 6.4 | 11.3 | 0.00 | 0.00 | 0.00 | 79 | 1015.0 |
| 20260505150701 | 13 | 185 | 4.8 | 12.9 | 0.00 | 0.00 | 0.00 | 79 | 1015.0 |
| 20260505150201 | 13 | 171 | 8.0 | 16.1 | 0.00 | 0.00 | 0.00 | 78 | 1014.8 |
| 20260505140203 | 13 | 194 | 3.2 | 6.4 | 0.00 | 0.00 | 0.00 | 80 | 1014.4 |
| 20260505130139 | 12 | 257 | 1.6 | 3.2 | 0.00 | 0.00 | 0.00 | 80 | 1013.9 |
| 20260505124630 | 12 | 254 | 3.2 | 6.4 | 0.00 | 0.00 | 0.00 | 80 | 1013.9 |
| 20260505124129 | 12 | 258 | 3.2 | 6.4 | 0.00 | 0.00 | 0.00 | 80 | 1013.9 |
| 20260505123628 | 12 | 259 | 1.6 | 4.8 | 0.00 | 0.00 | 0.00 | 80 | 1013.9 |
| 20260505123134 | 12 | 266 | 3.2 | 6.4 | 0.00 | 0.00 | 0.00 | 80 | 1013.7 |
| 20260505122618 | 12 | 264 | 3.2 | 6.4 | 0.00 | 0.00 | 0.00 | 80 | 1013.7 |
| 20260505122109 | 12 | 231 | 3.2 | 6.4 | 0.00 | 0.00 | 0.00 | 80 | 1013.6 |
| 20260505121603 | 12 | 258 | 3.2 | 4.8 | 0.00 | 0.00 | 0.00 | 80 | 1013.6 |
| 20260505121347 | 12 | 252 | 3.2 | 6.4 | 0.00 | 0.00 | 0.00 | 80 | 1013.6 |
| 20260505120557 | 12 | 243 | 3.2 | 8.0 | 0.00 | 0.00 | 0.00 | 80 | 1013.4 |
| 20260505120056 | 12 | 226 | 3.2 | 8.0 | 0.00 | 0.00 | 0.00 | 80 | 1013.4 |
| 20260505115551 | 12 | 226 | 3.2 | 6.4 | 0.00 | 0.00 | 0.00 | 80 | 1013.4 |
| 20260505115045 | 12 | 211 | 3.2 | 6.4 | 0.00 | 0.00 | 0.00 | 80 | 1013.4 |
| 20260505114545 | 12 | 269 | 3.2 | 6.4 | 0.00 | 0.00 | 0.00 | 80 | 1013.4 |
| 20260505114044 | 12 | 223 | 1.6 | 6.4 | 0.00 | 0.00 | 0.00 | 80 | 1013.4 |
| 20260505113541 | 12 | 220 | 1.6 | 4.8 | 0.00 | 0.00 | 0.00 | 81 | 1013.4 |
| 20260505113044 | 12 | 252 | 3.2 | 4.8 | 0.00 | 0.00 | 0.00 | 81 | 1013.4 |
| 20260505112557 | 12 | 240 | 1.6 | 4.8 | 0.00 | 0.00 | 0.00 | 81 | 1013.4 |
| 20260505111531 | 12 | 221 | 1.6 | 3.2 | 0.00 | 0.00 | 0.00 | 81 | 1013.4 |
| 20260505111315 | 12 | 221 | 3.2 | 4.8 | 0.00 | 0.00 | 0.00 | 81 | 1013.4 |
| 20260505110820 | 12 | 254 | 3.2 | 4.8 | 0.00 | 0.00 | 0.00 | 80 | 1013.3 |
| 20260505101506 | 12 | 181 | 4.8 | 9.7 | 0.00 | 0.00 | 0.00 | 81 | 1013.0 |
| 20260505101005 | 12 | 220 | 3.2 | 6.4 | 0.00 | 0.00 | 0.00 | 81 | 1013.0 |
| 20260505100511 | 12 | 171 | 3.2 | 6.4 | 0.00 | 0.00 | 0.00 | 81 | 1013.0 |
| 20260505100003 | 12 | 173 | 3.2 | 4.8 | 0.00 | 0.00 | 0.00 | 81 | 1013.0 |
| 20260505095503 | 12 | 226 | 1.6 | 4.8 | 0.00 | 0.00 | 0.00 | 82 | 1013.0 |
| 20260505095003 | 12 | 184 | 1.6 | 4.8 | 0.00 | 0.00 | 0.00 | 82 | 1012.9 |
| 20260505094504 | 12 | 232 | 1.6 | 4.8 | 0.00 | 0.00 | 0.00 | 82 | 1012.9 |
| 20260505094005 | 12 | 223 | 1.6 | 3.2 | 0.00 | 0.00 | 0.00 | 82 | 1012.9 |
| 20260505093502 | 12 | 229 | 1.6 | 3.2 | 0.00 | 0.00 | 0.00 | 82 | 1012.8 |
| 20260505093240 | 12 | 241 | 1.6 | 4.8 | 0.00 | 0.00 | 0.00 | 82 | 1012.8 |
| 20260505092458 | 12 | 154 | 1.6 | 4.8 | 0.00 | 0.00 | 0.00 | 82 | 1012.8 |
| 20260505091951 | 12 | 267 | 1.6 | 3.2 | 0.00 | 0.00 | 0.00 | 82 | 1012.8 |
| 20260505091721 | 12 | 267 | 1.6 | 4.8 | 0.00 | 0.00 | 0.00 | 82 | 1012.8 |
| 20260505090941 | 12 | 305 | 1.6 | 4.8 | 0.00 | 0.00 | 0.00 | 82 | 1012.8 |
| 20260505090713 | 12 | 291 | 3.2 | 4.8 | 0.00 | 0.00 | 0.00 | 82 | 1012.7 |
| 20260505090209 | 12 | 260 | 1.6 | 4.8 | 0.00 | 0.00 | 0.00 | 82 | 1012.7 |
| 20260505085431 | 12 | 233 | 3.2 | 4.8 | 0.00 | 0.00 | 0.00 | 82 | 1012.7 |
| 20260505084930 | 12 | 233 | 3.2 | 4.8 | 0.00 | 0.00 | 0.00 | 82 | 1012.8 |
| 20260505084705 | 12 | 251 | 1.6 | 4.8 | 0.00 | 0.00 | 0.00 | 82 | 1012.8 |
| 20260505083929 | 12 | 225 | 1.6 | 6.4 | 0.00 | 0.00 | 0.00 | 82 | 1012.8 |
| 20260505083428 | 12 | 208 | 3.2 | 8.0 | 0.00 | 0.00 | 0.00 | 82 | 1012.7 |
| 20260505082927 | 12 | 211 | 4.8 | 8.0 | 0.00 | 0.00 | 0.00 | 82 | 1012.7 |
| 20260505082423 | 12 | 200 | 4.8 | 6.4 | 0.00 | 0.00 | 0.00 | 82 | 1012.7 |
| 20260505081921 | 12 | 152 | 3.2 | 6.4 | 0.00 | 0.00 | 0.00 | 81 | 1012.7 |
| 20260505081415 | 12 | 130 | 3.2 | 4.8 | 0.00 | 0.00 | 0.00 | 81 | 1012.7 |
| 20260505080914 | 12 | 132 | 3.2 | 4.8 | 0.00 | 0.00 | 0.00 | 81 | 1012.7 |
| 20260505080404 | 12 | 149 | 3.2 | 6.4 | 0.00 | 0.00 | 0.00 | 81 | 1012.7 |
| 20260505075903 | 12 | 148 | 4.8 | 6.4 | 0.00 | 0.00 | 0.00 | 81 | 1012.7 |
| 20260505075403 | 12 | 150 | 4.8 | 8.0 | 0.00 | 0.00 | 0.00 | 81 | 1012.7 |
| 20260505074859 | 12 | 148 | 4.8 | 8.0 | 0.00 | 0.00 | 0.00 | 81 | 1012.5 |
| 20260505074358 | 12 | 148 | 3.2 | 6.4 | 0.00 | 0.00 | 0.00 | 81 | 1012.5 |
| 20260505073852 | 12 | 121 | 3.2 | 6.4 | 0.00 | 0.00 | 0.00 | 81 | 1012.5 |
| 20260505073351 | 12 | 135 | 3.2 | 6.4 | 0.00 | 0.00 | 0.00 | 80 | 1012.3 |
| 20260505072848 | 12 | 162 | 3.2 | 6.4 | 0.00 | 0.00 | 0.00 | 80 | 1012.3 |
| 20260505072625 | 12 | 157 | 3.2 | 6.4 | 0.00 | 0.00 | 0.00 | 80 | 1012.3 |
| 20260505071847 | 12 | 150 | 3.2 | 6.4 | 0.00 | 0.00 | 0.00 | 80 | 1012.2 |
| 20260505071342 | 12 | 152 | 3.2 | 6.4 | 0.00 | 0.00 | 0.00 | 80 | 1012.2 |
| 20260505070844 | 12 | 175 | 4.8 | 8.0 | 0.00 | 0.00 | 0.00 | 80 | 1012.2 |
| 20260505070356 | 12 | 146 | 6.4 | 8.0 | 0.00 | 0.00 | 0.00 | 79 | 1011.8 |
| 20260505065615 | 12 | 164 | 4.8 | 9.7 | 0.00 | 0.00 | 0.00 | 78 | 1011.8 |
| 20260505064833 | 12 | 149 | 3.2 | 8.0 | 0.00 | 0.00 | 0.00 | 79 | 1011.8 |
| 20260505064324 | 12 | 126 | 1.6 | 6.4 | 0.00 | 0.00 | 0.00 | 79 | 1011.8 |
| 20260505063823 | 13 | 269 | 3.2 | 6.4 | 0.00 | 0.00 | 0.00 | 79 | 1011.8 |
| 20260505063323 | 13 | 324 | 3.2 | 6.4 | 0.00 | 0.00 | 0.00 | 79 | 1011.6 |
| 20260505062827 | 13 | 330 | 3.2 | 6.4 | 0.00 | 0.00 | 0.00 | 79 | 1011.6 |
| 20260505062609 | 13 | 319 | 3.2 | 6.4 | 0.00 | 0.00 | 0.00 | 79 | 1011.6 |
| 20260505061819 | 13 | 330 | 4.8 | 8.0 | 0.00 | 0.00 | 0.00 | 79 | 1011.4 |
| 20260505061312 | 13 | 335 | 6.4 | 8.0 | 0.00 | 0.00 | 0.00 | 79 | 1011.4 |
| 20260505060808 | 13 | 321 | 4.8 | 6.4 | 0.00 | 0.00 | 0.00 | 78 | 1011.4 |
| 20260505060309 | 13 | 331 | 4.8 | 6.4 | 0.00 | 0.00 | 0.00 | 78 | 1011.4 |
| 20260505055803 | 13 | 336 | 3.2 | 6.4 | 0.00 | 0.00 | 0.00 | 78 | 1011.4 |
| 20260505055331 | 13 | 325 | 4.8 | 8.0 | 0.00 | 0.00 | 0.00 | 77 | 1011.4 |
| 20260505054305 | 13 | 292 | 6.4 | 8.0 | 0.00 | 0.00 | 0.00 | 77 | 1011.3 |
| 20260505053805 | 13 | 323 | 3.2 | 8.0 | 0.00 | 0.00 | 0.00 | 76 | 1011.3 |
| 20260505053259 | 13 | 302 | 3.2 | 8.0 | 0.00 | 0.00 | 0.00 | 76 | 1011.3 |
| 20260505052753 | 13 | 265 | 4.8 | 9.7 | 0.00 | 0.00 | 0.00 | 76 | 1011.3 |
| 20260505052246 | 13 | 308 | 6.4 | 9.7 | 0.00 | 0.00 | 0.00 | 76 | 1011.3 |
| 20260505051738 | 13 | 308 | 4.8 | 11.3 | 0.00 | 0.00 | 0.00 | 76 | 1011.3 |
| 20260505051236 | 13 | 319 | 3.2 | 11.3 | 0.00 | 0.00 | 0.00 | 76 | 1011.3 |
| 20260505050734 | 13 | 256 | 3.2 | 6.4 | 0.00 | 0.00 | 0.00 | 76 | 1011.3 |
| 20260505050511 | 13 | 321 | 3.2 | 8.0 | 0.00 | 0.00 | 0.00 | 76 | 1011.2 |
| 20260505041731 | 14 | 352 | 6.4 | 14.5 | 0.00 | 0.00 | 0.00 | 73 | 1010.7 |
| 20260505041228 | 14 | 283 | 4.8 | 14.5 | 0.00 | 0.00 | 0.00 | 73 | 1010.7 |
| 20260505040730 | 14 | 335 | 6.4 | 16.1 | 0.00 | 0.00 | 0.00 | 73 | 1010.7 |
| 20260505040229 | 14 | 340 | 8.0 | 19.3 | 0.00 | 0.00 | 0.00 | 72 | 1010.5 |
| 20260505035732 | 14 | 359 | 9.7 | 19.3 | 0.00 | 0.00 | 0.00 | 72 | 1010.5 |
| 20260505035258 | 14 | 326 | 8.0 | 16.1 | 0.00 | 0.00 | 0.00 | 72 | 1010.5 |
| 20260505034515 | 15 | 334 | 11.3 | 24.1 | 0.00 | 0.00 | 0.00 | 71 | 1010.3 |
| 20260505034021 | 15 | 324 | 11.3 | 24.1 | 0.00 | 0.00 | 0.00 | 70 | 1010.3 |
| 20260505033259 | 15 | 4 | 8.0 | 19.3 | 0.00 | 0.00 | 0.00 | 69 | 1010.2 |
| 20260505032228 | 15 | 320 | 14.5 | 27.4 | 0.00 | 0.00 | 0.00 | 68 | 1010.2 |
| 20260505032017 | 16 | 301 | 11.3 | 27.4 | 0.00 | 0.00 | 0.00 | 67 | 1010.1 |
| 20260505031519 | 16 | 344 | 6.4 | 16.1 | 0.00 | 0.00 | 0.00 | 65 | 1010.1 |
| 20260505030729 | 16 | 38 | 8.0 | 17.7 | 0.00 | 0.00 | 0.00 | 64 | 1010.1 |
| 20260505030229 | 16 | 323 | 8.0 | 19.3 | 0.00 | 0.00 | 0.00 | 64 | 1009.8 |
| 20260505025729 | 17 | 354 | 4.8 | 19.3 | 0.00 | 0.00 | 0.00 | 62 | 1009.8 |
| 20260505025231 | 17 | 248 | 6.4 | 17.7 | 0.00 | 0.00 | 0.00 | 62 | 1009.8 |
| 20260505024736 | 17 | 47 | 9.7 | 22.5 | 0.00 | 0.00 | 0.00 | 61 | 1009.7 |
| 20260505024231 | 18 | 352 | 11.3 | 22.5 | 0.00 | 0.00 | 0.00 | 60 | 1009.7 |
| 20260505023729 | 18 | 288 | 9.7 | 22.5 | 0.00 | 0.00 | 0.00 | 59 | 1009.7 |
| 20260505023228 | 18 | 350 | 6.4 | 22.5 | 0.00 | 0.00 | 0.00 | 57 | 1009.6 |
| 20260505022729 | 19 | 57 | 4.8 | 11.3 | 0.00 | 0.00 | 0.00 | 56 | 1009.6 |
| 20260505022231 | 19 | 283 | 4.8 | 11.3 | 0.00 | 0.00 | 0.00 | 56 | 1009.6 |
| 20260505021733 | 19 | 290 | 6.4 | 14.5 | 0.00 | 0.00 | 0.00 | 55 | 1009.5 |
| 20260505021232 | 19 | 313 | 9.7 | 19.3 | 0.00 | 0.00 | 0.00 | 55 | 1009.5 |
| 20260505020733 | 19 | 325 | 11.3 | 24.1 | 0.00 | 0.00 | 0.00 | 55 | 1009.5 |
| 20260505020231 | 19 | 9 | 12.9 | 27.4 | 0.00 | 0.00 | 0.00 | 55 | 1009.4 |
| 20260505015729 | 19 | 300 | 14.5 | 27.4 | 0.00 | 0.00 | 0.00 | 54 | 1009.4 |
| 20260505015231 | 19 | 318 | 11.3 | 20.9 | 0.00 | 0.00 | 0.00 | 54 | 1009.4 |
| 20260505014729 | 20 | 348 | 11.3 | 22.5 | 0.00 | 0.00 | 0.00 | 54 | 1009.4 |
| 20260505014224 | 20 | 315 | 12.9 | 25.7 | 0.00 | 0.00 | 0.00 | 53 | 1009.4 |
| 20260505013714 | 20 | 306 | 14.5 | 27.4 | 0.00 | 0.00 | 0.00 | 53 | 1009.4 |
| 20260505013215 | 20 | 298 | 14.5 | 27.4 | 0.00 | 0.00 | 0.00 | 54 | 1009.3 |
| 20260505012715 | 20 | 315 | 17.7 | 30.6 | 0.00 | 0.00 | 0.00 | 53 | 1009.3 |
| 20260505012241 | 20 | 322 | 19.3 | 30.6 | 0.00 | 0.00 | 0.00 | 53 | 1009.3 |
| 20260505011209 | 20 | 280 | 19.3 | 29.0 | 0.00 | 0.00 | 0.00 | 53 | 1009.2 |
| 20260505010709 | 20 | 304 | 19.3 | 35.4 | 0.00 | 0.00 | 0.00 | 52 | 1009.2 |
| 20260505010209 | 20 | 298 | 19.3 | 35.4 | 0.00 | 0.00 | 0.00 | 52 | 1009.2 |
| 20260505005955 | 21 | 288 | 19.3 | 30.6 | 0.00 | 0.00 | 0.00 | 51 | 1009.2 |
| 20260505005215 | 21 | 308 | 19.3 | 30.6 | 0.00 | 0.00 | 0.00 | 51 | 1009.2 |
| 20260505004707 | 21 | 298 | 17.7 | 30.6 | 0.00 | 0.00 | 0.00 | 51 | 1009.2 |
| 20260505004206 | 21 | 319 | 16.1 | 32.2 | 0.00 | 0.00 | 0.00 | 50 | 1009.2 |
| 20260505003705 | 21 | 257 | 19.3 | 32.2 | 0.00 | 0.00 | 0.00 | 50 | 1009.2 |
| 20260505003446 | 21 | 302 | 20.9 | 29.0 | 0.00 | 0.00 | 0.00 | 49 | 1009.2 |
| 20260505002703 | 21 | 325 | 19.3 | 29.0 | 0.00 | 0.00 | 0.00 | 48 | 1009.2 |
| 20260505002204 | 22 | 301 | 17.7 | 29.0 | 0.00 | 0.00 | 0.00 | 47 | 1009.2 |
| 20260505001703 | 22 | 292 | 19.3 | 29.0 | 0.00 | 0.00 | 0.00 | 48 | 1009.0 |
| 20260505001203 | 22 | 300 | 17.7 | 29.0 | 0.00 | 0.00 | 0.00 | 48 | 1009.0 |
| 20260505000703 | 22 | 252 | 16.1 | 29.0 | 0.00 | 0.00 | 0.00 | 47 | 1009.0 |
| 20260505000204 | 22 | 294 | 14.5 | 27.4 | 0.00 | 0.00 | 0.00 | 47 | 1008.9 |
| 20260504235942 | 22 | 321 | 12.9 | 27.4 | 0.00 | 0.00 | 0.00 | 46 | 1008.9 |